(459388) = 2012 KC16

Discovered at Mount Lemmon on 2012-05-20 by Mt. Lemmon Survey.

Orbit

Orbit type: Main Belt

Note: WebGL enabled browser required.

epoch2022-01-21.0
epoch JD2459600.5
perihelion date2018-05-08.01432
perihelion JD2458246.51432
argument of perihelion (°)192.76631
ascending node (°)92.06330
inclination (°)11.28934
eccentricity0.0621588
perihelion distance (AU)2.9003508
Tisserand w.r.t. Jupiter3.2
ΔV w.r.t. Earth (km/sec)11.1
semimajor axis (AU)3.0925819
mean anomaly (°)245.37827
mean daily motion (°/day)0.18122660
aphelion distance (AU)3.285
period (years)5.44
P-vector [x]0.25167257
P-vector [y]-0.86985570
P-vector [z]-0.42427819
Q-vector [x]0.94783287
Q-vector [y]0.31014734
Q-vector [z]-0.07363068
absolute magnitude16.23
phase slope0.15
uncertainty0
referenceMPO 700157
observations used156
oppositions10
arc length (days)6758
first opposition used2003
last opposition used2022
residual rms (arc-secs)0.73
perturbers coarse indicatorM-v
perturbers precise indicator003Ek
first observation date used2003-10-01.0
last observation date used2022-04-02.0
computer namePan
JD of orbit computation2457422.999887
perihelion JD uncertainty (days)2.6776E-04
argument of perihelion uncertainty (°)4.6839E-05
ascending node uncertainty (°)1.8043E-05
inclination uncertainty (°)5.6459E-06
eccentricity uncertainty 5.0152E-08
perihelion distance uncertainty (AU)1.7199E-07
Minimum Orbit Intersection Distances (in AU)
for orbit epoch: 2458200.5, reference: MPO411422
Mercury2.43775
Venus2.16862
Earth1.88051
Mars1.43326
Jupiter1.81973
Saturn5.80531
Uranus15.0786
Neptune26.6413

Observations

160 total observations over interval: 2003 10 01.41618 – 2022 04 02.353537
These data are available for download (format description).

